Tracking 19574 objects as of 15-Feb-2019
HD Live streaming from Space Station
objects crossing your sky now

TEMPSAT 1

Track TEMPSAT 1 now!
10-day predictions
TEMPSAT 1 is classified as:


NORAD ID: 1512
Int'l Code: 1965-065E
Perigee: 1,089.3 km
Apogee: 1,192.8 km
Inclination: 89.8 °
Period: 108.0 minutes
Semi major axis: 7512 km
RCS: 0.0695 m2 (small)
Launch date: August 13, 1965
Source: United States (US)
Launch site: AIR FORCE WESTERN TEST RANGE (AFWTR)
aabbcc
Your satellite tracking list
Your tracking list is empty




NASA's NSSDC Master Catalog

Two Line Element Set (TLE):
1  1512U 65065E   19046.51423090  .00000026  00000-0  33478-4 0  9992
2  1512  89.8464 232.5921 0068907 208.7844 204.4679 13.33419357603063
Source of the keplerian elements: AFSPC